Regional Weather Roundup
Issued by NWS

Home | Current Version | Previous Version | Graphics & Text | Print | Product List | Glossary On
Versions: 1 2 3 4 5 6 7 8 9 10 11 12 13 14 15 16 17 18 19 20 21 22 23 24 25 26 27 28 29 30 31 32 33 34 35 36 37 38 39 40 41 42 43 44 45 46 47 48 49 50
392
ASUS45 KBOU 290207
RWRCO

WEATHER ROUNDUP FOR COLORADO
NATIONAL WEATHER SERVICE DENVER/BOULDER CO
800 PM MDT SUN MAY 28 2017

NOTE: "FAIR" INDICATES FEW OR NO CLOUDS BELOW 12000 FEET WITH NO
SIGNIFICANT WEATHER AND/OR OBSTRUCTIONS TO VISIBILITY.

COZ001>005-013-030-031-290300-
...NORTHWEST COLORADO...

CITY           SKY/WX    TMP DP  RH WIND       PRES   REMARKS
CRAIG          FAIR      61  33  35 NW7       30.24R
HAYDEN         FAIR      61  30  31 W6        30.25S
MEEKER         FAIR      64  28  25 N9        30.24R
RABBIT EARS PA NOT AVBL
STEAMBOAT SPGS NOT AVBL
WALDEN         NOT AVBL
$$

COZ006>008-011-290300-
...WEST CENTRAL VALLEYS...

CITY           SKY/WX    TMP DP  RH WIND       PRES   REMARKS
GRAND JUNCTION FAIR      74  25  16 W6        30.11S
MONTROSE       FAIR      70  13  11 NW7       30.18R
EAGLE          FAIR      64  24  21 N15       30.24R
RIFLE          FAIR      72  25  17 NW9       30.16R
DELTA          FAIR      76   6   6 W13       30.13S
NUCLA          FAIR      70  18  13 N5        30.20S
$$

COZ017>023-064>068-290300-
...SOUTHWEST COLORADO...

CITY           SKY/WX    TMP DP  RH WIND       PRES   REMARKS
DURANGO        FAIR      67  12  12 W7        30.20R
CORTEZ         FAIR      71  17  12 NW3       30.17R
PAGOSA SPRINGS FAIR      65   7  10 SW6       30.26S
TELLURIDE      FAIR      57   9  15 CALM      30.37R
WOLF CREEK PAS NOT AVBL
$$

COZ009-010-012-014-032>034-037-058>063-290300-
...CENTRAL COLORADO...

CITY           SKY/WX    TMP DP  RH WIND       PRES   REMARKS
ASPEN          FAIR      57  25  29 W6        30.27R
BUENA VISTA    MOCLDY    60  15  17 S13       30.27R
COPPER MTN     NOT AVBL
BERTHOUD PASS  NOT AVBL
COTTONWOOD PAS NOT AVBL
GUNNISON       FAIR      62  17  17 CALM      30.27R
KREMMLING      NOT AVBL
LEADVILLE      FAIR      49  21  33 N8        30.38R
SALIDA         FAIR      62  22  21 SE15G22   30.32R
SUNLIGHT       NOT AVBL
WILKERSON PASS NOT AVBL
$$

COZ069>075-290300-
...SAN LUIS VALLEY/SANGRE DE CRISTO MOUNTAINS...

CITY           SKY/WX    TMP DP  RH WIND       PRES   REMARKS
ALAMOSA        FAIR      60  25  26 SE7       30.22S
DEL NORTE      NOT AVBL
LA VETA PASS   NOT AVBL
SAGUACHE       NOT AVBL
$$

COZ035-036-038>040-290300-
...NORTHERN COLORADO FRONT RANGE...

CITY           SKY/WX    TMP DP  RH WIND       PRES   REMARKS
DENVER INTL AP FAIR      63  38  39 NE6       30.20R
DMNS CITY PARK   N/A     65  31  27 NE5G13    30.19S
AURORA         PTCLDY    62  39  42 E3        30.21R
FRONT RANGE AP PTCLDY    64  45  48 N5        30.21R
ERIE MUNI ARPT NOT AVBL
BOULDER MUN AP NOT AVBL
CENTENNIAL     FAIR      61  39  44 E6        30.22R
BROOMFIELD     PTCLDY    64  36  34 N6        30.21R
FORT COLLINS   MOCLDY    62  42  47 NE13      30.21R
LONGMONT       NOT AVBL
$$

COZ041-046-047-076>085-087-088-290300-
...PIKES PEAK/PALMER DIVIDE AND SOUTHERN FOOTHILLS...

CITY           SKY/WX    TMP DP  RH WIND       PRES   REMARKS
COLO. SPRINGS  FAIR      64  29  26 VRB5      30.25S
A. F. ACADEMY  CLOUDY    58  33  38 SW7       30.25S
SCHRIEVER AFB  FAIR      61  31  32 CALM      30.25S
CHEYENNE MTN   FAIR      56  32  41 NW7       30.23S
ELLICOTT       FAIR     N/A N/A N/A SE7       30.24R
FALCON         FAIR      56  34  42 SE5       30.29S
FORT CARSON    FAIR      63  33  32 SE6       30.22S
LIMON          FAIR      62  39  42 CALM      30.20S
MONUMENT HILL  NOT AVBL
CANON CITY     NOT AVBL
WALSENBURG     FAIR      57  43  58 E6        30.23S
TRINIDAD       FAIR      61  32  33 E5        30.22S
$$

COZ042>045-048>051-090-091-290300-
...NORTHEAST COLORADO...

CITY           SKY/WX    TMP DP  RH WIND       PRES   REMARKS
GREELEY ARPT   FAIR      59  44  57 NE15      30.20R
AKRON          CLOUDY    58  42  55 N21G30    30.18R
BURLINGTON     FAIR      66  45  46 W5        30.13S
WRAY           FAIR      63  43  48 N8        30.11R
YUMA           NOT AVBL
STERLING       NOT AVBL
HOLYOKE        NOT AVBL
FORT MORGAN    LGT RAIN  54  45  71 NW26G41   30.24R
$$

COZ086-089-092>099-290300-
...SOUTHEAST COLORADO...

CITY           SKY/WX    TMP DP  RH WIND       PRES   REMARKS
PUEBLO         FAIR      65  37  35 S7        30.17R
LA JUNTA       FAIR      69  40  34 S5        30.15R
LAMAR          FAIR      70  39  32 CALM      30.10S
SPRINGFIELD      N/A     64  42  44 CALM      30.17R
$$




USA.gov is the U.S. government's official web portal to all federal, state and local government web resources and services.